Location: Dortmund
(51.5019°N, 7.6520°E)
Time: 07:32:35
(UTC+01:00)

OTV 5 (USA 277) - Visible Passes

Search period start: 22 February 2018 00:00
Search period end: 04 March 2018 00:00
Orbit: 404 x 417 km, 43.0° (Epoch: 07 September)

Date Brightness Start Highest point End Pass type
(mag) Time Alt. Az. Time Alt. Az. Time Alt. Az.
22 Feb ? 06:43:38 10° SSW 06:45:24 14° SSE 06:47:10 10° SE visible
23 Feb ? 05:53:26 10° S 05:54:33 11° SSE 05:55:40 10° SE visible
24 Feb ? 06:37:54 10° SW 06:40:11 18° S 06:42:29 10° SE visible
25 Feb ? 05:47:48 12° SSW 05:49:19 16° SSE 05:51:25 10° SE visible
26 Feb ? 04:59:06 13° SSE 04:59:06 13° SSE 05:00:12 10° SE visible
26 Feb ? 06:32:37 10° SW 06:35:01 19° S 06:37:26 10° SE visible
27 Feb ? 05:43:07 16° SSW 05:44:08 19° S 05:46:31 10° SE visible
28 Feb ? 04:54:23 15° SSE 04:54:23 15° SSE 04:55:31 10° SE visible
28 Feb ? 06:27:39 10° SW 06:29:51 17° S 06:32:03 10° SSE visible
01 Mar ? 05:38:23 17° SSW 05:38:58 18° S 05:41:19 10° SE visible
02 Mar ? 04:49:40 14° SE 04:49:40 14° SE 04:50:28 10° SE visible
02 Mar ? 06:23:09 10° SW 06:24:38 12° SSW 06:26:07 10° S visible
03 Mar ? 05:33:44 15° SSW 05:33:46 15° SSW 05:35:42 10° SSE visible
